Location: Newark
(48.1333°N, 17.1000°E)
Time: 21:02:43
(UTC+00:00)

N. Korean satellite - Pass Details

Date: 25 January 2020
Orbit: 456 x 505 km, 97.2° (Epoch: 26 February)

Event Time Altitude Azimuth Distance (km) Brightness Sun altitude
Rises 16:20:26 0° 189° (S) 2,459 10.6 -7.1°
Reaches altitude 10° 16:22:37 10° 200° (SSW) 1,591 9.8 -7.4°
Maximum altitude 16:25:39 30° 264° (W) 844 8.7 -7.9°
Drops below altitude 10° 16:28:45 10° 327° (NNW) 1,609 9.4 -8.4°
Sets 16:30:58 0° 339° (NNW) 2,494 10.2 -8.7°
